Weather in Zyuzino

Russia / Udmurt Republic     57°28′21″N   54°01′51″E
temp.,
°C
wind,
m/s
gust,
m/s
humid.,
%
clouds,
%
prec.,
mm/h
press.,
hPa
HPBL,
m
13 may, thu
thu1301:00+16s11636 0.0 102711
04:00+15se116811 0.0 102711
07:00+18ese125946 0.0 1027119
10:00+23sse234715 0.0 1026561
13:00+25s34350 0.0 10261904
16:00+26sw55300 0.0 10252175
19:00+22ssw35465 0.0 102578
22:00+18ssw33510 0.0 102531
14 may, fri
fri1401:00+16s34585 0.0 102541
04:00+15s35635 0.0 102576
07:00+18s48595 0.0 1024220
10:00+23s574513 0.0 1024679
13:00+26ssw79351 0.0 10221440
16:00+27ssw7103727 0.0 10212115
19:00+23sw495414 0.0 1020233
22:00+19sw4963100 0.0 1021140
15 may, sat
sat1501:00+17sw36665 0.0 102191
04:00+15sw347125 0.0 102163
07:00+18sw476786 0.0 1021214
10:00+22sw4755100 0.0 1021619
13:00+26sw6840100 0.0 10201184
16:00+26sw5840100 0.0 1020669
19:00+22ssw4954100 0.0 1019203
22:00+19ssw41061100 0.0 1019155
16 may, sun
sun1601:00+17sw41163100 0.0 1019180
04:00+15ssw496245 0.0 1019130
07:00+19ssw4105824 0.0 1020264
10:00+24ssw694128 0.0 1019705
13:00+28sw811305 0.0 10182704
16:00+28sw7103428 0.0 10163090
19:00+24sw5104760 0.0 1016260
22:00+19sw4952100 0.0 1016134
17 may, mon
mon1701:00+18sw4106291 0.0 1016185
04:00+15wsw3478100 0.3 101661
07:00+18wsw357357 0.0 1017239
10:00+23w68530 0.0 10171277
13:00+25wnw69400 0.0 10172274
16:00+25wnw683824 0.0 10172334
19:00+21nw485299 0.0 1018253
22:00+17nnw3461100 0.0 101857